User: anonymous   Login
Location: Unspecified
(0.0000°N, 0.0000°E)
Time: 09:00:09
(UTC+02:00)
Language:

Milstar 3 - Orbit

View from above orbital plane
View from above orbital plane
View from above satellite
View from above satellite

Ground track
Ground track

The orbit data is extracted from the following two-line orbital elements,

1 25724U 99023A   14273.03856759 0.00000000  00000-0  00000-0 0    06
2 25724  28.2146 137.5316 2127299  46.5039 313.4956  9.37439594    04
Epoch (UTC): 30 September 2014 00:55:32
Eccentricity: 0.2127299
inclination: 28.2146°
perigee height: 1102 km
apogee height: 5144 km
right ascension of ascending node: 137.5316°
argument of perigee: 46.5039°
revolutions per day: 9.37439594
mean anomaly at epoch: 313.4956°
orbit number at epoch: 0

The dashed part of the orbit path shows where the satellite is in the earth's shadow,  

DLR